This demonstration page uses our WeatherBlox Daily Observations layout. Learn more.

Left ArrowRight Arrow

36.19886, -115.1175

Hourly Observations for May 2, 2021

Temp ( °F °C ) Dew Point ( °F °C ) Humidity (%) Winds ( mph kmh ) Pressure ( in mb ) Visibility ( mi km ) Precip ( " mm )
12:53 am 00:53 Clear 74 23.3 19 -7.2 12 12 NNW 12 19 29.55 1001 10 16 N/A
1:53 am 01:53 Clear 75 23.9 19 -7.2 12 12 N 8 13 29.54 1000 10 16 N/A
2:53 am 02:53 Clear 74 23.3 18 -7.8 12 12 WNW 15 24 29.54 1000 10 16 N/A
3:53 am 03:53 Clear 74 23.3 18 -7.8 12 12 W 10 17 29.53 1000 10 16 N/A
4:53 am 04:53 Clear 75 23.9 16 -8.9 10 10 N N/A 29.54 1000 10 16 N/A
5:53 am 05:53 Sunny 74 23.3 16 -8.9 11 11 NW 15 24 29.55 1001 10 16 N/A
6:53 am 06:53 Sunny 74 23.3 16 -8.9 11 11 NW 17 28 29.57 1001 10 16 N/A
7:53 am 07:53 Sunny 79 26.1 16 -8.9 9 9 NNW 17 28 29.58 1002 10 16 N/A
8:53 am 08:53 Sunny 81 27.2 18 -7.8 9 9 NW 24 39 29.57 1001 10 16 N/A
9:53 am 09:53 Sunny 83 28.3 20 -6.7 10 10 NNW 20 31 29.57 1002 10 16 N/A
10:53 am 10:53 Sunny 85 29.4 21 -6.1 9 9 WNW 25 41 29.58 1002 10 16 N/A
11:53 am 11:53 Sunny 85 29.4 23 -5 10 10 NNW 24 39 29.58 1002 10 16 N/A
12:53 pm 12:53 Sunny 87 30.6 21 -6.1 9 9 NW 18 30 29.56 1001 10 16 N/A
1:53 pm 13:53 Sunny 88 31.1 19 -7.2 8 8 NW 22 35 29.53 1000 10 16 N/A
2:53 pm 14:53 Sunny 88 31.1 23 -5 9 9 N 24 39 29.51 999 10 16 N/A
3:53 pm 15:53 Sunny 87 30.6 22 -5.6 9 9 NNW 18 30 29.49 999 10 16 N/A
4:53 pm 16:53 Sunny 88 31.1 19 -7.2 8 8 NW 22 35 29.47 998 10 16 N/A
5:53 pm 17:53 Sunny 85 29.4 22 -5.6 10 10 NW 26 43 29.49 999 10 16 N/A
6:53 pm 18:53 Sunny 83 28.3 25 -3.9 12 12 NW 25 41 29.52 1000 10 16 N/A
7:53 pm 19:53 Clear 80 26.7 26 -3.3 14 14 NW 21 33 29.56 1001 10 16 N/A
8:53 pm 20:53 Clear 78 25.6 26 -3.3 15 15 NW 20 31 29.60 1002 10 16 N/A
9:53 pm 21:53 Mostly Clear 77 25 26 -3.3 15 15 NW 16 26 29.63 1004 10 16 N/A
10:53 pm 22:53 Cloudy 75 23.9 26 -3.3 16 16 NNW 13 20 29.66 1004 10 16 N/A
11:53 pm 23:53 Mostly Cloudy 74 23.3 27 -2.8 17 17 N 9 15 29.70 1006 10 16 N/A

Powered by AerisWeather